[[{"header":{"parameterUnit":"m.s-1","parameterCategory":1,"la1":30.2991,"la2":30.254,"lo1":-89.0895,"lo2":-89.0444,"dy":0.0017,"dx":0.0017,"nx":28,"ny":28,"refTime":"2024-08-26T03:00:00:Z","depth":0,"parameterNumber":2,"parameterNumberName":"U-component_of_WINDS"},"data":[0,0,0,0,0,0,0,0,0,0,0,0,0,0,0,0,0,0,0,0,0,0,0,0,0,0,0,0,0,0,0,0,0,0,0,0,0,0,0,0,0,0,0,0,0,0,0,0,0,0,0,0,0,0,0,0,0,0,-0.9051,-0.9051,0,-0.9043,-0.9043,-0.9043,-0.8993,-0.8991,-0.899,-0.8989,-0.8983,-0.8983,-0.8984,0,0,0,0,0,0,0,0,0,0,0,0,0,-0.9025,-0.9025,-0.9051,-0.9051,-0.9051,-0.9043,-0.9043,-0.9043,-0.8993,-0.8991,-0.899,-0.8988,-0.8982,-0.8983,-0.8985,0,0,0,0,0,0,0,0,0,0,0,0,0,-0.9028,-0.9026,-0.9051,-0.9025,-0.9022,-0.9043,-0.9043,-0.9043,-0.8993,-0.8991,-0.8989,-0.8988,-0.8982,-0.8983,-0.8985,-0.903,0,0,-0.8989,-0.899,0,0,0,0,0,0,0,0,-0.9028,-0.9029,-0.9029,-0.9027,-0.9024,-0.9017,-0.9031,-0.9039,-0.8994,-0.9004,-0.8989,-0.8987,-0.8996,-0.8996,-0.8998,-0.903,-0.903,-0.8989,-0.899,-0.8991,-0.8991,0,0,0,0,0,0,0,-0.9028,-0.9029,-0.9048,-0.9029,-0.9026,-0.9014,-0.9013,-0.9032,-0.901,-0.9003,-0.9,-0.8999,-0.8994,-0.8997,-0.8998,-0.903,-0.8989,-0.8991,-0.8991,-0.8992,-0.9098,-0.91,0,0,0,0,0,0,-0.9031,-0.903,-0.9048,-0.9048,-0.9022,-0.9016,-0.9014,-0.9021,-0.901,-0.9007,-0.9001,-0.8997,-0.8995,-0.8996,-0.8997,-0.905,-0.8991,-0.8992,-0.8993,-0.9097,-0.9099,-0.9101,0,0,0,0,0,0,-0.9031,-0.9033,-0.9048,-0.9038,-0.9039,-0.9018,-0.9026,-0.9022,-0.9025,-0.9008,-0.9004,-0.9008,-0.8994,-0.8995,-0.9022,-0.9049,-0.8993,-0.8994,-0.9094,-0.9097,-0.91,-0.9156,0,0,0,0,0,0,-0.903,-0.9033,-0.905,-0.9038,-0.9039,-0.9073,-0.9028,-0.9023,-0.9027,-0.9022,-0.9014,-0.9011,-0.8993,-0.9021,-0.9024,-0.905,-0.8995,-0.9092,-0.9096,-0.9099,-0.9152,-0.9161,-0.9168,0,0,0,0,0,-0.9029,-0.9067,-0.9051,-0.9054,-0.906,-0.9075,-0.9076,-0.9054,-0.903,-0.9047,-0.9036,-0.9011,-0.9046,-0.9024,-0.9027,-0.9054,-0.909,-0.9094,-0.9099,-0.9148,-0.9159,-0.9168,0,0,0,0,0,0,-0.9083,-0.9065,-0.9047,-0.9082,-0.908,-0.9066,-0.9087,-0.9066,-0.9071,-0.9066,-0.904,-0.9038,-0.9069,-0.9064,-0.904,-0.9098,-0.9064,-0.9069,-0.91,-0.911,-0.9118,-0.9119,-0.8996,0,0,0,0,0,-0.9099,-0.9112,-0.9095,-0.9128,-0.9128,-0.9108,-0.9113,-0.9097,-0.9094,-0.9093,-0.9084,-0.9084,-0.9094,-0.9102,-0.9111,-0.9151,-0.9148,-0.9171,-0.9179,-0.9186,-0.9191,-0.9212,-0.9222,-0.9115,-0.9115,-0.9115,0,0,-0.9132,-0.9123,-0.9133,-0.9138,-0.9135,-0.915,-0.9107,-0.9125,-0.9136,-0.9096,-0.9121,-0.9115,-0.9112,-0.9145,-0.916,-0.9142,-0.922,-0.9192,-0.9197,-0.9198,-0.9218,-0.9228,-0.9237,-0.9118,-0.9118,-0.9117,0,0,-0.9199,-0.9194,-0.922,-0.9218,-0.9213,-0.9199,-0.9206,-0.9195,-0.9189,-0.9213,-0.9184,-0.9197,-0.9216,-0.9215,-0.9217,-0.9284,-0.9261,-0.9287,-0.933,-0.9351,-0.9359,-0.9367,-0.9391,-0.94,-0.9292,-0.9293,-0.9293,0,-0.9241,-0.9261,-0.9236,-0.9256,-0.9259,-0.9223,-0.9249,-0.9248,-0.9247,-0.925,-0.9231,-0.9253,-0.9249,-0.9282,-0.9298,-0.9301,-0.9308,-0.9288,-0.936,-0.9367,-0.9374,-0.9396,-0.9405,-0.9296,-0.9295,-0.9295,-0.9295,0,-0.9313,-0.9328,-0.9349,-0.9348,-0.9354,-0.9377,-0.9356,-0.9364,-0.9347,-0.9336,-0.9361,-0.9355,-0.9361,-0.9368,-0.9352,-0.9399,-0.9388,-0.9365,-0.933,-0.9387,-0.9408,-0.9417,-0.93,-0.9299,-0.9298,-0.9297,0,0,-0.9415,-0.9399,-0.9407,-0.9406,-0.9399,-0.941,-0.9431,-0.9437,-0.9445,-0.9446,-0.9463,-0.948,-0.9458,-0.946,-0.9443,-0.9462,-0.9515,-0.9436,-0.9435,-0.9451,-0.9567,-0.9585,-0.9596,-0.95,-0.9502,-0.9503,-0.9568,0,-0.9479,-0.9514,-0.9492,-0.9531,-0.9544,-0.951,-0.9529,-0.9526,-0.9516,-0.9527,-0.9516,-0.9528,-0.9498,-0.9499,-0.9516,-0.9505,-0.9538,-0.95,-0.9517,-0.9518,-0.9519,-0.9606,-0.9625,-0.9687,-0.9576,-0.9577,-0.9578,0,-0.956,-0.9563,-0.9603,-0.9592,-0.9597,-0.9614,-0.9617,-0.9628,-0.9624,-0.9616,-0.9618,-0.9597,-0.9617,-0.9583,-0.9611,-0.9586,-0.9591,-0.9587,-0.9589,-0.959,-0.9551,-0.961,-0.9706,-0.9715,-0.959,-0.9589,-0.9589,0,-0.963,-0.9644,-0.967,-0.967,-0.9658,-0.9671,-0.9667,-0.9661,-0.9666,-0.967,-0.9673,-0.9679,-0.9683,-0.9688,-0.9669,-0.9645,-0.97,-0.9664,-0.9694,-0.9694,-0.9707,-0.9707,-0.9806,-0.971,-0.971,-0.971,-0.971,0,-0.9705,-0.9731,-0.9701,-0.9717,-0.9745,-0.972,-0.9748,-0.974,-0.9736,-0.975,-0.9721,-0.9735,-0.9709,-0.972,-0.9706,-0.9731,-0.9733,-0.9727,-0.9723,-0.973,-0.9731,-0.9733,-0.9729,-0.9712,-0.9712,-0.9711,-0.9711,0,-0.9789,-0.977,-0.9795,-0.9782,-0.9779,-0.98,-0.9789,-0.9803,-0.9791,-0.9809,-0.9812,-0.9793,-0.9805,-0.9786,-0.9796,-0.9786,-0.9822,-0.9811,-0.9823,-0.982,-0.9852,-0.9849,-0.9956,-0.9969,-0.9865,-0.9866,-0.9867,0,-0.9838,-0.9857,-0.9845,-0.9852,-0.9849,-0.9861,-0.9865,-0.9841,-0.9847,-0.9845,-0.986,-0.9869,-0.9875,-0.9896,-0.9883,-0.9891,-0.988,-0.9917,-0.9881,-0.9888,-0.9881,-0.988,-0.9882,-0.9925,-0.9926,-0.9927,-0.9928,0,-0.9927,-0.9917,-0.9924,-0.9929,-0.9935,-0.9938,-0.9938,-0.9946,-0.992,-0.9929,-0.994,-0.9945,-0.9955,-0.9964,-0.9969,-0.9965,-0.9943,-0.9939,-0.9947,-0.9954,-0.996,-0.9958,-0.9844,-0.9937,-0.9936,-0.9935,-0.9935,-0.9934,-0.9995,-1.0011,-1.0004,-1.0014,-1.0011,-1.0012,-1.0025,-1.0014,-1.0023,-1.0029,-1.0014,-1.0029,-1.0025,-1.0028,-1.0027,-1.0039,-1.0022,-1.0033,-1.0036,-1.0039,-1.0044,-0.9958,-1.0039,-1.0039,-1.0039,-1.0038,-1.0038,0,-1.0084,-1.0078,-1.0087,-1.0088,-1.0095,-1.0072,-1.0072,-1.008,-1.0093,-1.0091,-1.0097,-1.0111,-1.012,-1.0108,-1.0115,-1.0127,-1.0117,-1.013,-1.0129,-1.0128,-1.0058,-1.0051,-1.0138,-1.0138,-1.0138,-1.0138,-1.0138,-1.0138,-1.0131,-1.0155,-1.0144,-1.0167,-1.0161,-1.0175,-1.0177,-1.0177,-1.0175,-1.0191,-1.0198,-1.019,-1.0184,-1.0191,-1.0198,-1.0195,-1.0199,-1.0216,-1.0208,-1.0143,-1.0133,-1.0124,-1.0117,-1.0217,-1.0217,-1.0278,-1.0278,-1.0279]},{"header":{"parameterUnit":"m.s-1","parameterCategory":1,"la1":30.2991,"la2":30.254,"lo1":-89.0895,"lo2":-89.0444,"dy":0.0017,"dx":0.0017,"nx":28,"ny":28,"refTime":"2024-08-26T03:00:00:Z","depth":0,"parameterNumber":3,"parameterNumberName":"V-component_of_WINDS"},"data":[0,0,0,0,0,0,0,0,0,0,0,0,0,0,0,0,0,0,0,0,0,0,0,0,0,0,0,0,0,0,0,0,0,0,0,0,0,0,0,0,0,0,0,0,0,0,0,0,0,0,0,0,0,0,0,0,0,0,0.2263,0.2263,0,0.221,0.221,0.2209,0.2165,0.2165,0.2164,0.2164,0.2107,0.2106,0.2105,0,0,0,0,0,0,0,0,0,0,0,0,0,0.2324,0.2323,0.2263,0.2263,0.2262,0.221,0.221,0.2209,0.2165,0.2165,0.2164,0.2164,0.2108,0.2106,0.2105,0,0,0,0,0,0,0,0,0,0,0,0,0,0.2287,0.2322,0.2263,0.2234,0.2231,0.2211,0.221,0.2209,0.2166,0.2165,0.2164,0.2164,0.2108,0.2106,0.2105,0.2108,0,0,0.21,0.2099,0,0,0,0,0,0,0,0,0.2289,0.2284,0.2239,0.2236,0.2232,0.2194,0.221,0.2175,0.2166,0.219,0.2164,0.2163,0.2136,0.2132,0.2124,0.2106,0.2103,0.21,0.2099,0.2098,0.2097,0,0,0,0,0,0,0,0.2291,0.2286,0.2242,0.2238,0.2234,0.2223,0.2217,0.2203,0.2168,0.2188,0.2185,0.2179,0.2134,0.2126,0.2122,0.2102,0.21,0.2098,0.2097,0.2097,0.2083,0.2084,0,0,0,0,0,0,0.2299,0.2289,0.2244,0.2241,0.226,0.2222,0.2215,0.2207,0.2168,0.2161,0.218,0.2177,0.2129,0.2124,0.212,0.2121,0.2098,0.2096,0.2095,0.2082,0.2083,0.2084,0,0,0,0,0,0,0.23,0.2295,0.2246,0.2264,0.2257,0.2222,0.2213,0.2206,0.2197,0.2162,0.2155,0.2178,0.2128,0.2122,0.2111,0.2118,0.2096,0.2094,0.2082,0.2083,0.2084,0.2123,0,0,0,0,0,0,0.2302,0.2296,0.2298,0.2264,0.2256,0.2239,0.2213,0.2206,0.2195,0.2191,0.2158,0.2151,0.2127,0.2114,0.211,0.2116,0.2093,0.2081,0.2082,0.2083,0.2121,0.2125,0.2129,0,0,0,0,0,0.2305,0.2311,0.2298,0.2293,0.2258,0.224,0.2235,0.2208,0.2196,0.2197,0.2173,0.2152,0.2118,0.2113,0.2108,0.2114,0.208,0.2082,0.2083,0.2119,0.2124,0.2129,0,0,0,0,0,0,0.2345,0.2306,0.2291,0.2287,0.2267,0.2233,0.2233,0.2214,0.2197,0.2194,0.216,0.2152,0.2145,0.2128,0.2123,0.2114,0.2096,0.2097,0.2126,0.213,0.2134,0.2138,0.2092,0,0,0,0,0,0.2354,0.2344,0.231,0.2309,0.23,0.2268,0.226,0.224,0.2218,0.2209,0.2185,0.2164,0.2148,0.2138,0.2122,0.2118,0.211,0.2119,0.2123,0.2127,0.2127,0.2123,0.2127,0.2089,0.2089,0.2088,0,0,0.2371,0.2349,0.2344,0.2317,0.2299,0.2288,0.2262,0.2251,0.2243,0.2207,0.2196,0.2177,0.2151,0.2144,0.2139,0.2129,0.2136,0.2129,0.2132,0.213,0.2125,0.2129,0.2132,0.2089,0.2089,0.2089,0,0,0.2398,0.238,0.2377,0.236,0.2334,0.2313,0.2312,0.228,0.2267,0.2255,0.2228,0.2216,0.219,0.2172,0.216,0.2179,0.2158,0.2174,0.2194,0.2191,0.2194,0.2196,0.2202,0.2205,0.2175,0.2175,0.2175,0,0.2422,0.2406,0.2378,0.2369,0.2357,0.2326,0.2322,0.2306,0.2276,0.2268,0.2257,0.2224,0.2203,0.2191,0.2196,0.2187,0.2184,0.2178,0.2196,0.2198,0.22,0.2205,0.2207,0.2177,0.2177,0.2177,0.2176,0,0.2437,0.2426,0.2427,0.2399,0.2387,0.2381,0.2351,0.2342,0.2324,0.2304,0.2291,0.2266,0.2244,0.2239,0.2221,0.2224,0.2218,0.2203,0.2184,0.2206,0.221,0.2212,0.218,0.2179,0.2179,0.2178,0,0,0.2488,0.2444,0.2445,0.2431,0.24,0.239,0.2382,0.2361,0.2354,0.2334,0.2325,0.2304,0.2289,0.2275,0.2254,0.2251,0.2266,0.2235,0.2234,0.2241,0.2267,0.2279,0.2281,0.2253,0.2253,0.2253,0.2269,0,0.2508,0.2493,0.2467,0.246,0.2449,0.2418,0.2411,0.239,0.2371,0.2357,0.2336,0.2321,0.2302,0.2293,0.2289,0.2265,0.2271,0.2264,0.2243,0.2243,0.2251,0.2284,0.2296,0.2312,0.227,0.2271,0.2271,0,0.253,0.2513,0.2505,0.2473,0.2468,0.2462,0.244,0.2428,0.2403,0.2389,0.2374,0.2351,0.234,0.2323,0.2306,0.2302,0.2292,0.2279,0.2279,0.2276,0.2258,0.228,0.2317,0.2319,0.2273,0.2273,0.2273,0,0.2567,0.2541,0.2533,0.2522,0.2486,0.2482,0.2466,0.2441,0.243,0.2411,0.2403,0.2382,0.237,0.2354,0.2326,0.2317,0.2312,0.2293,0.2299,0.23,0.2299,0.2299,0.2333,0.2294,0.2294,0.2294,0.2294,0,0.2592,0.2588,0.2549,0.2543,0.2537,0.2507,0.2502,0.2483,0.2461,0.2451,0.2423,0.2413,0.2377,0.2363,0.2341,0.233,0.2325,0.2313,0.2307,0.2315,0.2316,0.2307,0.2305,0.2294,0.2294,0.2294,0.2294,0,0.2632,0.2606,0.2594,0.2561,0.2552,0.2549,0.252,0.2513,0.2492,0.2479,0.2474,0.2441,0.2423,0.2394,0.2367,0.2352,0.2345,0.2335,0.2353,0.235,0.2357,0.2356,0.2386,0.2388,0.2348,0.2348,0.2349,0,0.265,0.2646,0.2612,0.2604,0.2589,0.2576,0.2564,0.2534,0.2523,0.2494,0.2491,0.2471,0.2453,0.2426,0.2399,0.2378,0.2367,0.2379,0.2364,0.2372,0.2366,0.2367,0.2366,0.2382,0.2383,0.2383,0.2384,0,0.2684,0.2671,0.2656,0.2636,0.2623,0.2605,0.2586,0.2581,0.2546,0.2535,0.2517,0.2503,0.2476,0.2456,0.2432,0.2414,0.2393,0.2389,0.2389,0.2397,0.2407,0.2401,0.2362,0.2388,0.2388,0.2387,0.2387,0.2387,0.2713,0.2708,0.2683,0.2666,0.2649,0.2632,0.2624,0.2602,0.2586,0.2563,0.2545,0.2528,0.2502,0.2467,0.2451,0.2436,0.2427,0.2427,0.2427,0.2427,0.243,0.241,0.2432,0.2432,0.2431,0.2431,0.2431,0,0.2745,0.2727,0.2712,0.2687,0.2674,0.2656,0.2634,0.2624,0.2609,0.2588,0.2571,0.255,0.253,0.2502,0.248,0.2473,0.2463,0.2468,0.2468,0.2464,0.244,0.2442,0.2477,0.2477,0.2477,0.2477,0.2477,0.2477,0.276,0.275,0.2734,0.2714,0.2697,0.268,0.2669,0.2653,0.2635,0.2613,0.2597,0.2578,0.2553,0.2529,0.251,0.2502,0.2495,0.2503,0.2492,0.247,0.2466,0.2462,0.2464,0.2502,0.2502,0.2517,0.2517,0.2517]}]]